Location: New Town
(33.2710°N, 90.7534°W)
Time: 03:55:11
(UTC+00:00)

ISS - Pass Details

Date: 24 April 2021
Orbit: 417 x 422 km, 51.6° (Epoch: 18 May)

Event Time Altitude Azimuth Distance (km) Brightness Sun altitude
Exits shadow 09:55:46 24° 174° (S) 904 -2.3 -17.5°
Maximum altitude 09:57:03 33° 131° (SE) 721 -2.4 -17.2°
Drops below altitude 10° 10:00:08 10° 65° (ENE) 1,500 0.4 -16.7°
Sets 10:02:21 0° 56° (NE) 2,368 1.9 -16.3°
